Location: The Saddle
(36.8333°N, 80.3417°W)
Time: 22:33:57
(UTC-05:00)

XW-2F - Visible Passes

Search period start: 26 February 2024 00:00
Search period end: 07 March 2024 00:00
Orbit: 337 x 340 km, 97.4° (Epoch: 26 February)

Date Brightness Start Highest point End Pass type
(mag) Time Alt. Az. Time Alt. Az. Time Alt. Az.
26 Feb ? 19:25:57 10° S 19:28:35 46° W 19:31:15 10° NNW visible
27 Feb ? 19:47:47 10° SSW 19:49:52 20° W 19:51:57 10° NW visible
29 Feb ? 18:57:59 10° SSE 19:00:33 43° ENE 19:03:08 10° N visible
01 Mar ? 19:17:45 10° S 19:20:24 73° W 19:23:04 10° NNW visible
02 Mar ? 19:37:28 10° SSW 19:39:49 29° W 19:42:13 10° NW visible
03 Mar ? 19:57:15 10° SW 19:58:50 15° W 20:00:26 10° WNW visible
04 Mar ? 18:44:55 10° SE 18:47:04 23° ENE 18:49:14 10° NNE visible
05 Mar ? 19:02:32 10° SSE 19:05:03 48° ENE 19:07:37 10° N visible
06 Mar ? 19:20:04 10° S 19:22:38 71° W 19:25:14 10° NNW visible
